TimeMST,TemperatureF,Dew PointF,Humidity,Sea Level PressureIn,VisibilityMPH,Wind Direction,Wind SpeedMPH,Gust SpeedMPH,PrecipitationIn,Events,Conditions,WindDirDegrees,DateUTC
12:55 AM,64.9,32.0,29,29.88,10.0,WNW,9.2,-,N/A,,Clear,300,2013-03-04 07:55:00
1:55 AM,63.0,32.0,31,29.88,10.0,NNW,3.5,-,N/A,,Clear,330,2013-03-04 08:55:00
2:55 AM,64.0,30.9,29,29.88,10.0,North,6.9,-,N/A,,Partly Cloudy,350,2013-03-04 09:55:00
3:55 AM,64.0,32.0,30,29.88,10.0,NW,13.8,24.2,N/A,,Partly Cloudy,320,2013-03-04 10:55:00
4:55 AM,62.1,33.1,34,29.88,10.0,NW,15.0,-,N/A,,Partly Cloudy,310,2013-03-04 11:55:00
5:55 AM,60.1,35.1,39,29.91,10.0,NW,11.5,-,N/A,,Scattered Clouds,310,2013-03-04 12:55:00
6:55 AM,57.9,36.0,44,29.93,10.0,WNW,10.4,-,N/A,,Scattered Clouds,290,2013-03-04 13:55:00
7:55 AM,57.0,37.0,47,29.95,10.0,WNW,6.9,-,N/A,,Scattered Clouds,290,2013-03-04 14:55:00
8:55 AM,62.1,37.9,41,29.96,10.0,West,11.5,-,N/A,,Scattered Clouds,270,2013-03-04 15:55:00
9:55 AM,66.0,37.9,36,29.99,10.0,WNW,12.7,-,N/A,,Scattered Clouds,290,2013-03-04 16:55:00
10:55 AM,69.1,37.9,32,29.99,10.0,WNW,13.8,-,N/A,,Scattered Clouds,290,2013-03-04 17:55:00
11:55 AM,73.0,37.9,28,29.99,10.0,WNW,11.5,-,N/A,,Scattered Clouds,290,2013-03-04 18:55:00
12:55 PM,75.0,36.0,24,29.96,10.0,NNW,10.4,16.1,N/A,,Scattered Clouds,330,2013-03-04 19:55:00
1:55 PM,77.0,36.0,23,29.94,10.0,Calm,Calm,-,N/A,,Scattered Clouds,0,2013-03-04 20:55:00
2:55 PM,78.1,37.0,23,29.92,10.0,SSW,10.4,-,N/A,,Scattered Clouds,210,2013-03-04 21:55:00
3:00 PM,-9999,-9999,N/A,-9999,-9999.0,North,-9999.0,-,N/A,,Unknown,0,2013-03-04 22:00:00
3:55 PM,78.1,37.0,23,29.91,10.0,SW,10.4,-,N/A,,Scattered Clouds,230,2013-03-04 22:55:00
4:55 PM,79.0,37.0,22,29.92,10.0,West,10.4,-,N/A,,Scattered Clouds,270,2013-03-04 23:55:00
4:58 PM,79.0,37.0,22,29.92,10.0,West,10.4,-,N/A,,Scattered Clouds,270,2013-03-04 23:58:00
5:55 PM,77.0,39.9,26,29.93,10.0,WSW,9.2,-,N/A,,Mostly Cloudy,250,2013-03-05 00:55:00
6:55 PM,72.0,41.0,33,29.96,10.0,WSW,6.9,-,N/A,,Mostly Cloudy,250,2013-03-05 01:55:00
7:55 PM,70.0,41.0,35,29.98,10.0,SW,4.6,-,N/A,,Mostly Cloudy,230,2013-03-05 02:55:00
8:55 PM,64.9,43.0,45,29.99,10.0,Calm,Calm,-,N/A,,Partly Cloudy,0,2013-03-05 03:55:00
9:55 PM,64.9,42.1,43,30.00,10.0,Calm,Calm,-,N/A,,Clear,0,2013-03-05 04:55:00
10:55 PM,62.1,41.0,46,30.01,10.0,South,3.5,-,N/A,,Clear,180,2013-03-05 05:55:00
11:55 PM,61.0,39.0,44,30.02,10.0,SSE,3.5,-,N/A,,Clear,150,2013-03-05 06:55:00